Date String (YYYY-MM-DD hh:mm:ss) UTC,Instrument flags,absolute air pressure of the measurement (hPa),sample flow rate (lpm),inlet stack bypass flow (lpm),air temperature of the measurement (°C),ambient temperature measured by the external sensor (°C),aerosol sample conditioner tube jacket temperature (°C),OPC LED temperature (°C),internal box temperature (°C),relative humidity of the measurement (%),span deviation,mass concentration of particles derived from Lorenz-Mie calculation of OPC scattering (μg/m³),mass concentration of particles derived from Lorenz-Mie calculation of OPC scattering (μg/m³),mass concentration of particles derived from Lorenz-Mie calculation of OPC scattering (μg/m³)
DateTimeUTC,F1_M11,P_M11,Q1_M11,Q2_M11,T1_M11,T2_M11,T3_M11,T4_M11,T5_M11,U1_M11,ZSPAN_M11,X0_M11,X2_M11,X1_M11
2023-06-18 17:00:00,SystemResetWarning,0825.9,5.00,000.00,029.6,027.7,000.0,038.0,031.2,26.6,0000.0,0008.52,0004.44,0004.08
2023-06-18 17:01:00,SystemResetWarning,0825.9,5.00,000.00,029.6,026.0,000.0,037.9,031.1,25.1,0000.0,0008.98,0004.45,0004.07
2023-06-18 17:02:00,SystemResetWarning,0825.9,5.01,000.00,029.5,025.6,000.0,037.9,031.1,24.8,0000.0,0009.52,0004.46,0004.07
2023-06-18 17:03:00,SystemResetWarning,0825.8,5.01,000.00,029.5,025.8,000.0,037.9,030.9,25.1,0000.0,0009.93,0004.49,0004.08
2023-06-18 17:04:00,SystemResetWarning,0825.9,5.00,000.00,029.4,026.2,000.0,037.9,030.8,23.8,0000.0,0009.44,0004.50,0004.06
2023-06-18 17:05:00,SystemResetWarning,0825.9,5.00,000.00,029.4,026.5,000.0,037.9,030.8,24.2,0000.0,0009.32,0004.50,0004.05
2023-06-18 17:06:00,SystemResetWarning,0825.9,5.00,000.00,029.4,026.8,000.0,037.9,030.9,25.7,0000.0,0009.58,0004.50,0004.04
2023-06-18 17:07:00,SystemResetWarning,0825.9,5.00,000.00,029.4,027.1,000.0,038.0,030.9,25.9,0000.0,0010.23,0004.49,0004.03
2023-06-18 17:08:00,SystemResetWarning,0825.9,5.00,000.00,029.5,027.4,000.0,038.0,031.0,23.8,0000.0,0010.15,0004.48,0004.02
2023-06-18 17:09:00,SystemResetWarning,0825.9,5.00,000.00,029.5,027.6,000.0,038.0,031.0,24.3,0000.0,0010.07,0004.49,0004.03
2023-06-18 17:10:00,SystemResetWarning,0825.9,5.00,000.00,029.5,027.8,000.0,038.0,031.1,22.9,0000.0,0009.84,0004.47,0004.03
2023-06-18 17:11:00,SystemResetWarning,0825.8,5.00,000.00,029.5,027.8,000.0,038.0,031.2,23.6,0000.0,0010.12,0004.47,0004.02
2023-06-18 17:12:00,SystemResetWarning,0825.8,4.99,000.00,029.6,026.3,000.0,038.0,031.1,23.4,0000.0,0009.74,0004.45,0004.01
2023-06-18 17:13:00,SystemResetWarning,0825.7,5.00,000.00,029.5,024.6,000.0,037.9,031.0,23.4,0000.0,0009.20,0004.44,0004.00
2023-06-18 17:14:00,SystemResetWarning,0825.7,5.01,000.00,029.5,024.7,000.0,037.8,030.9,22.4,0000.0,0008.95,0004.41,0003.99
2023-06-18 17:15:00,SystemResetWarning,0825.7,5.02,000.00,029.4,025.1,000.0,037.8,030.7,22.5,0000.0,0008.86,0004.38,0003.99
2023-06-18 17:16:00,SystemResetWarning,0825.7,4.99,000.00,029.3,025.6,000.0,037.8,030.6,23.3,0000.0,0008.85,0004.39,0003.99
2023-06-18 17:17:00,SystemResetWarning,0825.7,5.01,000.00,029.3,026.0,000.0,037.8,030.6,23.5,0000.0,0009.15,0004.37,0003.98
2023-06-18 17:18:00,SystemResetWarning,0825.7,5.01,000.00,029.3,026.4,000.0,037.8,030.7,24.1,0000.0,0008.41,0004.37,0003.98
2023-06-18 17:19:00,SystemResetWarning,0825.7,5.00,000.00,029.3,026.8,000.0,037.8,030.8,25.4,0000.0,0008.40,0004.36,0003.98
2023-06-18 17:20:00,SystemResetWarning,0825.8,5.01,000.00,029.3,027.1,000.0,037.9,030.8,23.9,0000.0,0008.43,0004.38,0003.98
2023-06-18 17:21:00,SystemResetWarning,0825.8,4.99,000.00,029.3,027.3,000.0,037.9,030.9,24.0,0000.0,0008.34,0004.39,0003.98
2023-06-18 17:22:00,SystemResetWarning,0825.7,5.00,000.00,029.3,027.5,000.0,037.9,030.9,25.1,0000.0,0007.96,0004.38,0003.99
2023-06-18 17:23:00,SystemResetWarning,0825.7,5.00,000.00,029.4,027.7,000.0,037.9,031.0,23.9,0000.0,0007.80,0004.37,0003.99
2023-06-18 17:24:00,SystemResetWarning,0825.8,5.00,000.00,029.4,027.9,000.0,037.9,031.0,25.0,0000.0,0007.94,0004.37,0003.98
2023-06-18 17:25:00,SystemResetWarning,0825.8,4.99,000.00,029.5,027.8,000.0,037.9,031.1,24.2,0000.0,0007.82,0004.38,0003.98
2023-06-18 17:26:00,SystemResetWarning,0825.8,5.00,000.00,029.5,026.0,000.0,037.9,031.1,24.1,0000.0,0007.83,0004.37,0003.98
2023-06-18 17:27:00,SystemResetWarning,0825.7,5.01,000.00,029.5,025.4,000.0,037.8,031.1,24.4,0000.0,0008.01,0004.36,0003.99
2023-06-18 17:28:00,SystemResetWarning,0825.7,5.01,000.00,029.4,025.7,000.0,037.8,030.9,24.0,0000.0,0007.53,0004.32,0003.98
2023-06-18 17:29:00,SystemResetWarning,0825.7,4.99,000.00,029.4,026.0,000.0,037.8,030.8,23.7,0000.0,0008.06,0004.34,0003.97
2023-06-18 17:30:00,SystemResetWarning,0825.7,5.00,000.00,029.3,026.4,000.0,037.8,030.8,24.6,0000.0,0008.79,0004.35,0003.97
2023-06-18 17:31:00,SystemResetWarning,0825.7,5.00,000.00,029.3,026.8,000.0,037.9,030.8,24.8,0000.0,0008.96,0004.34,0003.96
2023-06-18 17:32:00,SystemResetWarning,0825.7,4.99,000.00,029.4,027.1,000.0,037.9,030.9,25.5,0000.0,0009.00,0004.35,0003.96
2023-06-18 17:33:00,SystemResetWarning,0825.7,5.01,000.00,029.4,027.4,000.0,037.9,030.9,23.4,0000.0,0009.03,0004.35,0003.95
2023-06-18 17:34:00,SystemResetWarning,0825.7,5.01,000.00,029.4,027.6,000.0,037.9,031.0,24.5,0000.0,0009.07,0004.35,0003.93
2023-06-18 17:35:00,SystemResetWarning,0825.7,5.00,000.00,029.4,027.8,000.0,037.9,031.0,23.3,0000.0,0009.48,0004.37,0003.93
2023-06-18 17:36:00,SystemResetWarning,0825.7,4.98,000.00,029.5,027.2,000.0,037.9,031.1,22.7,0000.0,0009.66,0004.33,0003.91
2023-06-18 17:37:00,SystemResetWarning,0825.6,4.99,000.00,029.5,025.6,000.0,037.8,031.1,21.4,0000.0,0009.70,0004.31,0003.89
2023-06-18 17:38:00,SystemResetWarning,0825.6,5.02,000.00,029.4,025.6,000.0,037.8,031.0,22.9,0000.0,0009.71,0004.30,0003.86
2023-06-18 17:39:00,SystemResetWarning,0825.6,4.99,000.00,029.4,025.9,000.0,037.8,030.8,23.9,0000.0,0009.68,0004.29,0003.85
2023-06-18 17:40:00,SystemResetWarning,0825.6,5.00,000.00,029.3,026.2,000.0,037.8,030.8,22.7,0000.0,0009.15,0004.25,0003.85
2023-06-18 17:41:00,SystemResetWarning,0825.6,5.01,000.00,029.3,026.6,000.0,037.8,030.8,21.7,0000.0,0008.57,0004.24,0003.83
2023-06-18 17:42:00,SystemResetWarning,0825.6,5.00,000.00,029.3,026.9,000.0,037.9,030.9,20.5,0000.0,0008.10,0004.21,0003.82
2023-06-18 17:43:00,SystemResetWarning,0825.6,4.99,000.00,029.4,027.2,000.0,037.9,030.9,19.7,0000.0,0007.97,0004.17,0003.80
2023-06-18 17:44:00,SystemResetWarning,0825.6,4.99,000.00,029.4,027.5,000.0,037.9,030.9,19.3,0000.0,0008.00,0004.14,0003.77
2023-06-18 17:45:00,SystemResetWarning,0825.6,5.01,000.00,029.4,027.7,000.0,037.9,031.0,19.3,0000.0,0007.99,0004.12,0003.75
2023-06-18 17:46:00,SystemResetWarning,0825.6,5.01,000.00,029.5,027.8,000.0,037.9,031.0,20.0,0000.0,0007.73,0004.10,0003.73
2023-06-18 17:47:00,SystemResetWarning,0825.5,4.98,000.00,029.5,026.6,000.0,037.9,031.1,19.9,0000.0,0007.54,0004.10,0003.71
2023-06-18 17:48:00,SystemResetWarning,0825.5,5.00,000.00,029.4,024.7,000.0,037.8,030.9,20.9,0000.0,0007.51,0004.10,0003.71
2023-06-18 17:49:00,SystemResetWarning,0825.4,5.00,000.00,029.4,024.5,000.0,037.8,030.9,18.7,0000.0,0007.27,0004.09,0003.70
2023-06-18 17:50:00,SystemResetWarning,0825.4,5.01,000.00,029.3,025.0,000.0,037.8,030.6,19.1,0000.0,0007.23,0004.09,0003.70
2023-06-18 17:51:00,SystemResetWarning,0825.4,5.00,000.00,029.2,025.4,000.0,037.8,030.5,18.9,0000.0,0007.26,0004.09,0003.69
2023-06-18 17:52:00,SystemResetWarning,0825.4,5.00,000.00,029.2,025.9,000.0,037.8,030.6,19.8,0000.0,0007.34,0004.09,0003.67
2023-06-18 17:53:00,SystemResetWarning,0825.4,5.00,000.00,029.2,026.3,000.0,037.8,030.7,19.8,0000.0,0007.43,0004.08,0003.66
2023-06-18 17:54:00,SystemResetWarning,0825.4,5.00,000.00,029.2,026.7,000.0,037.8,030.7,19.1,0000.0,0007.42,0004.07,0003.66
2023-06-18 17:55:00,SystemResetWarning,0825.4,5.01,000.00,029.2,027.0,000.0,037.8,030.7,20.0,0000.0,0007.45,0004.09,0003.67
2023-06-18 17:56:00,SystemResetWarning,0825.4,5.00,000.00,029.3,027.3,000.0,037.8,030.8,20.8,0000.0,0007.58,0004.12,0003.67
2023-06-18 17:57:00,SystemResetWarning,0825.4,4.99,000.00,029.3,027.5,000.0,037.8,030.9,21.3,0000.0,0007.51,0004.13,0003.68
2023-06-18 17:58:00,SystemResetWarning,0825.4,4.99,000.00,029.3,027.7,000.0,037.8,030.9,19.9,0000.0,0007.36,0004.13,0003.68
2023-06-18 17:59:00,SystemResetWarning,0825.4,5.00,000.00,029.4,027.9,000.0,037.8,031.0,16.7,0000.0,0007.26,0004.11,0003.69
